Regional Weather Roundup
Issued by NWS

Home | Current Version | Previous Version | Graphics & Text | Print | Product List | Glossary On
Versions: 1 2 3 4 5 6 7 8 9 10 11 12 13 14 15 16 17 18 19 20 21 22 23 24 25 26 27 28 29 30 31 32 33 34 35 36 37 38 39 40 41 42 43 44 45 46 47 48 49 50
000
ASUS43 KDMX 261704
RWRIA

WEATHER ROUNDUP FOR IOWA
NATIONAL WEATHER SERVICE DES MOINES IA
  ISSUED BY NWS QUAD CITIES IA IL
1100 AM CST THU FEB 26 2015

NOTE: "FAIR" INDICATES FEW OR NO CLOUDS BELOW 12,000 FEET WITH NO
SIGNIFICANT WEATHER AND/OR OBSTRUCTIONS TO VISIBILITY.

* - THESE STATIONS ARE NOT NWS STATIONS...THUS NOT UNDER NWS
QUALITY CONTROL.  THEY ALSO DO NOT REPORT WEATHER SUCH
AS PRECIPITATION OR FOG.

IAZ001>003-012>014-020>022-031>034-043>046-261800-
   NORTHWEST IOWA

CITY           SKY/WX    TMP DP  RH WIND       PRES   REMARKS
CARROLL *      MOSUNNY    1  -9  60 N17       30.47R WCI -19
CHEROKEE *     SUNNY      0  -8  68 N10       30.49R WCI -16
DENNISON *     SUNNY      0  -9  65 NW16      30.47R WCI -21
LE MARS *      CLOUDY     1  -6  71 N16       30.53R WCI -18
ORANGE CITY *  SUNNY      1  -8  66 N13G20    30.48R WCI -16
SHELDON *      MOSUNNY    0 -11  60 N17       30.47R WCI -21
SIOUX CITY     SUNNY      5  -5  63 NW15      30.53S WCI -13
SPENCER        MOSUNNY    1  -9  62 NW16      30.47R WCI -19
STORM LAKE *   SUNNY     -2 -11  65 N13       30.46R WCI -21
$$

IAZ055>058-069>071-079>083-090>094-261800-
   SOUTHWEST IOWA

CITY           SKY/WX    TMP DP  RH WIND       PRES   REMARKS
ATLANTIC *     MOSUNNY    3  -8  60 N16       30.48R WCI -16
AUDUBON *      SUNNY      1  -6  71 NW14      30.45S WCI -17
CLARINDA *     MOSUNNY    7   0  72 NW15G21   30.50R WCI -11
COUNCIL BLFS * MOSUNNY    5  -2  72 NW10G17   30.48R WCI -10
CRESTON *      SUNNY      5  -4  66 NW14      30.43R WCI -12
HARLAN *       SUNNY      1  -6  71 N16       30.51S WCI -18
LAMONI         SUNNY      7  -4  60 N13       30.41R WCI  -9
RED OAK *      PTSUNNY    5  -2  72 N13G18    30.50R WCI -12
SHENANDOAH *   PTSUNNY    7  -2  66 N14       30.52R WCI -10
$$

IAZ047>049-059>061-072>074-084-261800-
   CENTRAL IOWA

CITY           SKY/WX    TMP DP  RH WIND       PRES   REMARKS
AMES           SUNNY      2  -7  66 NW15      30.45R WCI -17
ANKENY *       SUNNY      3  -8  60 NW12G20   30.46R WCI -13
BOONE *        SUNNY      1  -6  71 NW15G21   30.42R WCI -18
CHARITON *     SUNNY      7  -6  56 NW16      30.41R WCI -11
DES MOINES     MOSUNNY    7  -7  52 N15       30.44R WCI -10
GRINNELL *     SUNNY      3  -5  68 NW16      30.40R WCI -16
KNOXVILLE *    SUNNY      5  -8  56 N16       30.40S WCI -14
MARSHALLTOWN   SUNNY      2  -7  66 N17       30.41R WCI -18
NEWTON *       SUNNY      3  -8  60 N17       30.42R WCI -17
PELLA *        SUNNY      7  -2  66 NW14      30.43R WCI  -9
PERRY *          N/A      2  -4  75 N17       30.47R WCI -18
$$

IAZ004>006-015-016-023>025-035-036-261800-
   NORTH CENTRAL IOWA

CITY           SKY/WX    TMP DP  RH WIND       PRES   REMARKS
ALGONA *       MOSUNNY    0  -8  71 N13G18    30.45S WCI -18
CLARION *      PTSUNNY    0  -8  71 N14G20    30.44R WCI -19
ESTHERVILLE    PTSUNNY   -2  -8  76 NW15      30.45R WCI -22
FORT DODGE *   SUNNY      0  -8  71 N8G17     30.46R WCI -15
MASON CITY     SUNNY     -1  -9  68 NW14      30.43R WCI -20
FOREST CITY *  LGT SNOW   1  -9  60 NW13      30.42R WCI -16
WEBSTER CITY * SUNNY      0  -8  71 NW17      30.43R WCI -21
IOWA FALLS *   FAIR       1  -8  66 N14       30.42R WCI -17
$$

IAZ007>011-017>019-026>030-037>042-050>054-066-261800-
   NORTHEAST IOWA

CITY           SKY/WX    TMP DP  RH WIND       PRES   REMARKS
CEDAR RAPIDS   SUNNY      6  -4  63 N12       30.35R WCI  -9
CHARLES CITY * SUNNY      0  -9  65 N17       30.40R WCI -21
CLINTON *      SUNNY     10   0  61 N13       30.34R WCI  -5
DECORAH *      SUNNY      3  -8  60 NW13      30.35R WCI -14
DUBUQUE        SUNNY      7  -4  60 N13       30.30R WCI  -9
MONTICELLO *   SUNNY      7  -4  61 N10       30.35R WCI  -8
OELWEIN *      SUNNY      3  -6  66 N10       30.37R WCI -12
WATERLOO       SUNNY      3  -7  63 NW13      30.40R WCI -14
$$

IAZ064-065-067-068-078-261800-
   EAST CENTRAL IOWA

CITY           SKY/WX    TMP DP  RH WIND       PRES   REMARKS
DAVENPORT      SUNNY     10   0  63 N13       30.32R WCI  -5
IOWA CITY      SUNNY      9  -3  58 N13       30.38R WCI  -7
MT. PLEASANT * SUNNY      8  -4  60 NW13      30.36R WCI  -8
MUSCATINE *    SUNNY     10  -2  56 NW13      30.37R WCI  -5
QUAD CITIES    CLOUDY    11   0  61 N10       30.32R WCI  -3
$$

IAZ062-063-075>077-085>089-095>099-261800-
   SOUTHEAST IOWA

CITY           SKY/WX    TMP DP  RH WIND       PRES   REMARKS
BURLINGTON     SUNNY     12   1  61 N13       30.32R WCI  -3
FAIRFIELD *    SUNNY      7  -6  56 NW16      30.38R WCI -11
FORT MADISON * MOSUNNY   10   1  67 NW13      30.34R WCI  -5
KEOKUK *       MOSUNNY   12   1  62 NW16      30.33R WCI  -4
OSKALOOSA *    FAIR       6  -4  64 N17       30.40R WCI -13
CENTERVILLE *  FAIR       9   0  66 NW14      30.39S WCI  -8
OTTUMWA        SUNNY      7  -4  60 N20       30.39R WCI -13
WASHINGTON *   SUNNY      7   0  72 N18       30.36R WCI -12
$$

ABBREVIATIONS USED IN REMARKS
   TC - TEMPERATURES IN CELSIUS
  WCI - WIND CHILL INDEX
   HX - HEAT INDEX
  VSB - VISIBILITY
$$


USA.gov is the U.S. government's official web portal to all federal, state and local government web resources and services.